RH
65 63 69 66 68 66 66 66 65 67 66 64 65 60 60 66 78 84 94 94 99 98 91 86 79 89 93 92 97 94 98 98 98 99 98 91 97 86 88 84 92 87 93 98 94 91 90 71 64 65 62 70 73 73
64 66 68 68 67 64 65 67 69 66 64 66 63 60 59 66 72 78 97 87 88 100 94 93 86 78 74 74 90 96 94 93 92 94 97 94 96 93 91 96 88 94 86 79 77 80 68 76 69 73 77 78 81 83
65 70 70 69 65 63 64 64 65 66 66 63 61 60 61 67 67 73 96 96 98 99 93 94 91 92 83 85 84 96 98 90 97 95 93 91 97 87 95 97 92 87 86 91 82 71 75 69 73 80 83 88 88 83
66 70 68 68 66 63 61 60 60 60 60 59 59 61 64 64 65 68 92 92 97 98 98 90 85 91 89 92 95 93 95 96 96 99 99 95 91 88 93 88 92 85 88 85 85 77 75 74 79 82 82 80 76 71
72 71 67 68 66 64 62 61 61 60 60 62 60 60 61 63 65 74 87 92 92 99 98 95 88 93 90 96 98 98 97 96 97 99 99 98 91 90 91 90 95 86 81 82 77 67 65 66 77 77 78 79 72 68
72 69 70 69 67 65 63 63 62 61 60 60 65 66 64 65 66 90 98 99 96 98 99 99 91 90 96 96 98 98 97 98 98 98 96 96 89 87 95 94 75 79 72 70 68 74 78 78 76 74 77 76 70 65
73 69 69 70 69 66 65 65 63 62 61 61 67 69 69 68 85 96 96 97 88 93 100 99 97 91 90 93 96 98 98 99 99 98 98 99 91 90 95 95 71 74 75 72 75 76 79 81 78 75 73 72 69 64
73 69 68 71 70 68 67 66 63 63 64 66 66 74 80 79 80 94 90 89 88 99 99 100 100 95 86 96 98 96 99 99 99 99 98 98 93 92 96 84 83 81 82 82 80 80 74 81 81 81 73 69 72 70
74 71 70 71 71 70 68 67 62 64 66 68 74 80 87 92 98 98 91 95 96 98 100 99 100 95 90 96 95 97 97 99 98 99 98 96 96 98 85 81 79 82 78 80 91 88 83 86 86 82 78 74 73 73
75 72 72 73 72 71 70 64 64 66 68 74 86 92 94 97 85 92 99 100 100 100 99 99 95 96 96 96 98 98 98 99 100 96 95 99 98 84 85 82 79 81 81 84 91 98 99 95 91 82 72 68 67 70
74 73 74 74 72 72 63 66 67 68 75 95 97 99 94 86 99 98 100 100 100 100 98 96 95 96 94 98 96 96 99 100 99 93 97 95 96 91 86 87 87 85 85 82 79 83 80 75 76 80 81 78 73 67
73 74 75 74 73 72 63 70 67 87 93 92 97 94 97 96 100 100 100 100 99 94 99 99 96 94 96 96 95 96 98 98 96 94 98 96 90 84 86 92 91 89 84 80 82 83 80 77 75 78 79 75 68 64
73 74 74 74 73 65 71 70 68 71 86 95 98 100 97 100 99 96 99 99 100 99 100 99 99 96 97 93 95 94 92 95 90 97 96 95 90 83 86 93 94 91 84 86 87 85 81 82 79 75 72 65 60 59
72 73 74 74 67 73 71 69 70 78 95 97 96 97 95 98 99 99 99 100 98 100 100 99 98 97 93 98 98 87 94 90 98 99 92 93 81 84 92 94 93 92 89 89 88 84 83 80 76 68 62 58 58 59
73 73 74 67 74 73 68 72 75 96 98 95 95 98 100 98 100 100 100 100 97 99 100 97 98 85 97 97 89 95 97 97 97 92 92 94 88 98 96 96 95 93 93 91 86 84 82 74 70 68 62 58 56 56
72 74 70 66 77 69 67 77 94 99 100 99 98 99 96 96 98 97 99 98 98 100 99 99 96 96 91 96 96 98 99 97 86 94 96 98 93 95 96 95 93 92 90 87 84 80 76 72 70 70 64 62 58 55
71 93 70 78 73 73 73 92 97 98 99 96 99 94 98 97 98 97 98 98 89 99 100 99 98 88 94 100 99 94 91 90 95 95 98 98 98 94 95 93 92 92 91 89 85 81 81 71 64 63 70 69 62 60
91 89 78 78 76 82 89 100 91 92 91 96 98 99 91 94 96 89 89 97 99 100 99 100 92 99 96 94 93 92 96 98 98 100 98 96 94 93 91 93 93 93 92 91 89 83 80 76 70 71 78 78 76 72
87 89 75 68 78 94 94 94 94 96 95 94 86 84 85 84 82 86 83 85 97 99 100 99 98 96 94 97 96 96 96 99 97 97 96 93 91 92 93 95 94 94 93 92 84 76 73 68 69 68 65 61 65 64
73 70 68 70 76 96 98 98 94 92 95 96 95 91 92 91 94 89 84 95 98 100 99 99 98 94 95 98 97 94 96 94 97 97 95 95 95 96 95 95 92 90 87 86 83 77 74 70 63 61 62 62 62 64
72 81 70 82 96 93 95 96 100 96 92 91 90 98 97 98 99 99 98 99 99 99 99 96 95 85 94 92 84 90 93 96 97 95 92 99 96 97 97 96 93 82 81 82 80 73 69 67 68 64 75 61 57 55
89 65 78 75 92 95 98 95 98 98 95 92 96 100 98 97 98 100 98 99 97 98 91 86 87 90 88 91 93 91 88 94 94 94 85 89 98 98 97 91 86 90 87 85 79 78 73 72 68 62 62 62 60 62
68 68 83 86 76 72 71 94 100 98 100 100 99 98 98 100 98 97 99 98 99 98 96 90 92 94 94 89 95 96 98 95 95 92 95 96 95 94 93 93 89 86 90 84 75 77 80 69 65 65 64 65 65 64
58 81 76 77 80 66 77 94 89 99 98 100 100 99 92 100 97 100 99 99 97 98 97 95 89 86 85 95 95 95 95 96 96 96 93 93 97 98 88 86 82 84 75 76 77 76 73 70 68 67 68 72 70 66
76 71 78 64 91 81 80 90 99 97 100 100 100 100 97 100 100 100 100 96 98 99 98 97 94 88 94 92 90 91 95 96 96 97 95 90 92 90 91 82 76 76 70 80 80 76 77 74 71 72 71 69 70 74
79 78 79 74 86 71 81 81 98 96 99 100 100 98 99 99 100 98 96 97 98 98 98 99 98 95 85 91 91 91 92 94 94 96 96 91 83 87 92 91 90 90 74 69 78 82 81 76 74 76 73 70 70 82
86 81 74 67 82 84 95 88 83 96 100 100 100 99 99 100 100 90 98 98 98 98 98 98 97 96 93 88 89 88 93 95 96 96 97 97 94 81 83 86 86 82 76 78 79 77 78 76 74 73 77 81 83 72
82 82 86 96 98 97 89 98 100 97 94 90 91 99 98 94 89 93 94 96 98 99 98 95 94 95 95 92 92 94 94 96 97 97 96 96 96 98 97 95 94 93 91 86 84 77 73 71 75 80 82 80 79 74
94 87 92 100 100 100 96 86 88 93 86 95 92 95 95 93 96 97 95 97 100 100 100 97 94 96 93 93 95 95 96 96 96 96 96 95 96 97 97 96 96 96 94 94 82 73 79 78 81 82 75 73 80 82
97 96 96 100 95 93 92 96 98 99 95 92 89 96 96 96 96 98 98 100 100 100 100 99 97 98 96 96 95 96 96 96 96 96 96 95 95 96 96 95 95 95 94 86 83 86 88 92 86 73 76 79 81 84
96 97 98 99 96 99 99 95 97 90 96 100 100 99 98 98 94 98 100 99 100 100 100 100 97 98 98 97 96 96 96 96 96 96 96 95 95 96 95 95 95 94 91 87 86 89 89 81 77 78 80 84 82 79
98 100 98 100 99 99 99 100 100 100 100 100 100 100 99 99 99 97 98 100 100 99 98 99 99 95 94 96 96 96 93 96 97 96 96 95 95 95 95 95 94 90 89 92 93 91 82 75 75 76 80 85 81 82
100 100 100 100 100 100 100 100 100 100 100 100 100 100 100 99 96 95 97 100 98 99 100 98 96 96 96 96 96 96 94 96 94 93 93 93 93 94 94 94 94 93 92 87 76 71 74 78 78 80 81 81 83 84
Wind_Speed
19 20 21 22 23 22 20 19 18 18 15 16 16 18 20 19 23 10 7 4 4 2 2 1 2 4 3 3 4 2 1 3 5 5 4 3 4 4 2 3 5 6 4 3 2 2 7 2 5 5 3 5 3 2
17 20 22 22 22 21 20 19 17 15 15 15 17 16 18 18 18 15 4 6 6 1 2 1 2 2 3 6 5 4 2 1 3 3 2 2 2 1 3 4 1 3 6 3 7 7 5 3 4 2 2 4 3 2
17 20 21 21 20 19 19 18 17 16 16 16 17 18 17 19 18 15 4 4 4 2 2 2 2 1 2 2 3 4 3 3 3 1 2 1 3 3 4 6 2 3 3 3 2 4 5 4 1 3 4 3 4 5
17 19 19 19 19 18 18 18 18 17 17 17 17 17 18 19 19 16 4 3 2 3 1 3 0 1 1 2 3 2 2 2 1 2 3 2 3 3 3 3 3 4 3 3 6 7 6 3 3 3 4 5 9 10
18 18 17 18 19 18 18 18 18 18 18 18 18 19 19 18 18 11 8 5 6 3 2 2 1 1 0 4 4 3 4 3 2 3 3 3 1 2 1 1 4 6 7 5 5 3 2 1 4 4 4 5 8 13
17 16 16 18 18 18 18 19 19 19 19 19 19 21 18 17 15 3 2 2 2 3 2 2 1 2 1 2 3 3 3 2 2 2 2 3 2 2 1 3 6 5 3 4 1 2 3 5 6 4 6 7 9 12
16 16 16 18 18 19 19 20 21 21 20 20 22 21 18 14 3 3 2 2 8 6 2 2 2 1 3 2 1 2 2 2 2 2 3 2 1 2 2 5 6 6 5 4 3 7 3 3 4 7 10 11 14 13
14 15 17 18 19 19 20 21 21 21 23 24 24 19 12 8 4 4 3 10 5 3 1 1 3 1 3 1 2 2 2 2 3 1 1 1 1 1 5 9 2 2 3 3 5 1 1 9 10 10 9 13 14 13
14 14 17 18 19 19 20 21 21 24 25 25 18 5 3 1 2 2 16 6 3 1 1 1 1 3 1 1 1 1 1 2 2 2 1 1 3 6 8 5 6 9 7 7 5 7 8 10 9 10 11 12 15 11
15 14 16 17 18 19 20 20 22 24 25 17 4 1 2 1 12 11 2 3 1 1 0 2 2 2 1 0 1 1 0 1 1 1 2 3 5 7 4 3 2 4 7 11 10 6 7 9 11 11 8 8 12 11
14 14 15 17 17 18 17 20 21 22 9 5 5 3 4 12 2 1 1 1 2 1 2 2 4 3 1 2 1 1 1 1 1 2 2 2 5 4 4 5 2 5 8 3 2 5 6 11 13 13 11 10 12 12
14 13 14 17 17 17 17 19 19 5 2 3 3 3 3 3 2 3 1 2 1 3 2 2 2 3 1 0 2 2 1 1 3 2 1 4 6 3 2 3 3 5 7 4 2 8 12 13 12 13 12 13 11 13
14 13 14 16 16 13 19 18 17 10 3 1 0 2 2 1 1 3 5 2 2 2 1 0 0 0 0 1 2 1 2 2 0 1 5 7 3 3 2 1 3 4 7 7 7 8 12 13 13 15 14 12 14 13
13 13 14 16 12 16 16 16 10 3 2 2 3 2 3 2 2 2 3 2 2 2 3 1 1 1 1 3 1 2 1 1 1 3 7 4 3 2 1 0 4 6 7 8 9 10 13 14 13 12 13 14 15 14
13 13 15 6 14 15 14 9 6 2 2 2 1 2 2 2 2 1 2 2 3 2 1 1 1 2 1 2 2 2 2 4 5 7 5 4 4 2 1 1 5 5 5 8 10 12 13 14 14 13 11 12 14 14
12 12 3 8 15 14 7 3 2 1 2 1 1 2 2 1 1 2 2 3 2 2 1 1 1 1 5 4 4 7 5 7 6 5 3 2 2 2 1 2 4 5 6 7 8 11 12 13 14 13 12 10 12 13
8 4 4 14 14 7 5 1 1 2 1 1 0 1 1 3 3 2 1 2 4 3 2 1 5 5 3 3 3 6 8 5 3 3 2 2 3 2 3 5 5 6 7 8 10 10 12 13 14 14 15 8 11 10
3 4 9 12 7 3 3 2 2 1 1 1 2 3 2 2 3 4 3 2 1 2 1 2 1 2 6 6 5 5 3 2 3 2 3 3 2 2 3 6 5 6 7 7 9 10 12 13 13 10 13 12 12 11
6 5 6 7 1 3 3 4 2 1 2 1 3 3 3 5 5 5 6 6 2 2 3 2 4 4 4 2 2 3 3 2 2 2 2 3 2 4 5 6 6 7 8 7 10 8 7 8 10 10 10 10 10 8
1 3 2 3 2 3 3 3 2 1 1 2 2 3 3 4 3 3 5 3 2 2 4 5 2 2 3 3 2 5 4 3 2 1 2 1 0 4 5 4 5 8 8 9 8 13 10 9 7 8 8 9 11 10
3 0 4 3 3 2 3 2 1 1 1 2 1 3 4 3 3 2 1 1 3 2 2 3 3 5 6 7 6 5 7 4 4 4 3 2 2 3 3 4 5 5 7 8 8 9 9 7 7 8 8 8 8 8
2 3 3 3 3 3 3 2 1 2 1 1 1 2 3 4 3 3 3 1 1 2 3 4 5 7 8 8 8 10 9 9 6 4 3 8 5 4 5 6 7 6 6 7 8 8 8 7 8 9 9 10 11 9
5 3 3 4 3 4 3 3 3 1 2 3 3 3 3 3 4 3 1 2 2 2 1 3 6 8 10 12 10 8 5 6 4 3 4 3 3 4 5 4 5 9 8 5 8 9 9 14 13 11 11 11 10 10
5 4 3 1 2 3 2 3 2 3 3 3 2 5 4 3 3 4 3 3 4 1 1 3 5 6 5 6 5 5 6 5 4 2 2 4 5 2 5 5 5 3 6 8 9 10 10 9 16 11 11 11 10 9
5 2 4 3 3 4 3 2 4 3 2 1 1 4 4 3 2 2 3 4 2 2 2 2 3 4 5 6 6 6 9 5 6 4 2 2 5 5 5 5 6 6 8 12 10 11 11 10 10 11 11 11 13 11
2 3 5 6 2 4 5 4 4 6 3 1 5 3 3 2 2 6 4 3 3 3 2 2 4 6 7 5 7 7 7 6 7 6 2 4 6 8 9 9 9 5 5 8 14 14 13 11 12 15 12 16 21 15
4 5 2 1 3 4 3 2 2 4 4 5 3 1 3 1 6 6 2 2 3 3 3 3 5 6 8 8 7 7 7 6 6 6 2 3 3 4 8 10 12 8 8 10 10 15 18 15 14 13 13 11 10 11
4 4 7 4 2 0 5 2 4 7 4 3 4 3 7 8 6 4 4 3 3 2 4 5 6 7 8 8 7 7 6 4 3 2 2 3 3 2 5 6 8 21 11 10 10 10 12 13 15 15 14 12 9 7
3 2 4 2 1 1 5 6 6 3 1 4 5 4 5 4 3 3 3 3 0 1 3 4 5 3 6 7 6 5 5 4 4 6 6 3 2 0 4 8 10 9 10 11 19 15 17 15 14 12 13 11 8 7
4 3 4 2 6 6 4 3 2 2 0 1 1 3 3 4 4 2 1 1 1 3 4 5 6 5 6 6 6 4 3 4 5 4 3 5 3 4 7 9 10 11 11 13 15 17 25 18 19 13 12 9 8 8
3 3 4 2 3 2 2 2 3 2 3 2 2 3 4 5 5 2 3 3 2 2 3 4 4 3 4 4 4 4 4 2 4 6 6 7 8 7 8 9 10 11 12 15 15 14 14 12 12 13 12 11 11 10
2 3 4 3 2 3 2 2 1 1 3 2 3 1 4 3 5 4 2 2 2 2 4 4 4 5 6 5 4 4 4 2 2 4 9 8 8 9 10 10 11 12 14 14 14 14 15 16 12 12 12 12 10 9
3 3 3 3 3 2 1 3 3 4 2 2 3 3 3 3 7 4 2 2 3 3 3 4 5 5 7 6 4 2 3 3 10 16 18 18 18 15 10 9 10 13 18 15 13 14 15 17 13 13 12 11 9 8
Wind_Direction
331 330 328 328 332 337 339 337 337 340 345 342 346 347 336 343 346 359 282 277 305 341 341 13 160 133 117 160 152 143 162 194 181 183 194 209 221 212 171 222 186 176 190 211 197 270 289 26 356 48 255 304 296 292
327 328 326 330 333 339 345 345 344 344 344 345 345 342 333 339 343 356 310 329 320 293 253 275 298 339 206 176 138 164 241 198 220 191 213 198 240 189 153 275 1 236 196 196 180 223 264 305 242 308 322 251 313 277
324 323 329 331 334 336 345 344 344 348 347 346 340 334 331 332 339 349 303 315 301 317 298 24 257 194 38 117 130 154 199 213 254 142 261 206 243 133 179 234 254 253 183 229 347 284 268 300 56 43 6 28 26 75
322 324 328 331 328 333 341 341 339 339 338 336 328 323 328 329 329 335 313 286 275 272 240 284 82 217 186 162 173 145 121 132 179 267 232 229 221 158 207 213 194 214 134 210 260 280 279 286 44 86 61 72 78 68
317 324 328 326 323 329 336 333 331 330 328 325 331 322 318 320 321 314 274 237 219 288 350 313 159 183 102 150 176 163 216 194 198 208 221 221 243 148 181 145 238 185 198 174 226 255 211 82 113 118 93 78 91 102
317 324 322 320 319 324 331 329 327 324 322 324 320 311 308 309 315 317 302 124 203 308 276 292 146 159 89 133 199 204 205 213 255 255 240 237 218 144 232 248 259 205 216 191 219 81 60 94 98 83 105 97 85 92
320 322 317 317 317 321 326 326 327 326 322 319 312 307 298 283 245 229 282 317 320 339 250 310 306 76 152 147 227 217 198 209 212 240 221 260 214 136 246 236 252 227 230 199 151 125 75 218 149 113 112 102 96 88
319 319 315 314 315 321 324 326 329 328 325 321 317 311 289 255 244 266 253 273 196 244 280 279 277 336 164 213 244 192 216 195 187 285 285 233 117 220 256 238 246 167 99 120 163 292 60 111 106 108 119 121 105 104
317 316 312 312 315 321 324 327 330 329 329 327 322 318 91 124 176 249 322 310 205 239 206 148 138 262 76 266 262 289 276 222 130 241 217 251 192 221 229 203 209 196 182 166 99 93 112 111 124 128 133 127 116 120
313 313 309 310 314 322 327 331 335 336 333 334 349 18 132 68 313 296 190 139 122 224 235 234 135 242 177 30 291 290 344 311 232 351 309 227 254 260 281 274 261 203 156 147 124 131 137 136 150 146 139 125 122 124
307 312 311 309 316 324 329 337 339 348 356 13 7 6 302 315 309 80 43 145 131 261 211 239 188 174 244 161 240 44 219 331 265 277 286 263 268 250 337 300 233 170 158 155 42 112 141 146 149 136 122 116 120 121
303 315 313 309 317 323 328 335 342 11 296 292 304 306 299 324 21 85 102 335 200 233 234 191 196 180 140 163 105 348 163 13 255 335 292 258 252 267 316 349 38 137 140 103 103 127 127 130 134 126 126 121 115 115
301 312 310 312 320 321 329 333 341 340 5 23 277 359 35 355 148 199 174 196 242 334 325 36 293 133 95 60 82 91 257 226 99 282 245 235 263 280 251 49 62 125 119 109 98 95 110 112 120 128 123 121 122 119
300 304 309 314 321 329 332 340 342 14 50 46 1 31 115 347 30 13 340 351 274 287 314 299 81 142 327 59 350 269 16 348 322 265 242 253 258 296 308 334 136 138 118 113 115 119 119 120 117 119 124 131 128 124
303 302 309 303 331 333 342 352 4 34 68 75 24 142 116 37 290 306 282 293 261 240 297 1 37 105 339 94 53 83 352 260 227 234 238 251 272 280 271 158 140 132 127 131 135 129 125 126 122 116 121 125 123 123
302 315 240 312 332 336 342 339 28 77 68 59 136 23 317 166 51 358 325 294 281 310 312 111 172 150 227 146 157 202 155 230 248 223 244 274 247 232 214 142 133 122 121 122 126 127 124 126 125 116 106 109 112 120
296 232 271 323 329 336 347 47 44 49 100 58 345 333 215 248 231 235 264 274 349 327 250 188 192 222 74 66 253 190 208 223 243 280 257 235 228 213 159 131 124 118 117 122 125 119 113 116 118 114 109 100 100 102
241 262 298 314 340 347 0 37 90 53 138 82 267 275 298 264 282 279 271 260 256 299 288 256 85 199 202 186 247 244 264 274 263 275 283 278 238 192 154 134 119 115 110 106 114 122 127 130 124 118 119 116 105 102
228 259 302 321 339 99 70 352 2 125 203 273 278 277 267 276 276 280 278 276 237 238 295 253 240 221 233 245 268 303 303 282 288 298 311 325 184 147 114 99 102 101 111 118 131 128 118 113 124 129 129 128 121 123
310 114 7 342 93 79 72 334 319 187 189 248 305 284 291 271 280 277 279 253 236 234 212 218 253 21 344 328 310 292 283 279 255 278 286 293 206 119 130 139 132 122 108 102 100 115 112 107 113 124 123 134 129 131
117 266 58 67 29 65 110 122 359 226 287 236 327 331 291 306 278 268 208 18 233 233 274 20 2 345 330 310 303 305 298 273 237 242 234 187 190 113 99 105 119 130 131 134 132 135 126 125 125 130 121 113 111 112
177 74 85 22 73 5 78 57 147 245 170 254 300 348 288 299 285 277 324 264 39 336 349 331 327 325 316 312 306 301 293 287 257 256 205 136 148 152 161 162 147 140 143 146 139 132 125 126 120 118 116 117 114 113
102 81 62 39 55 44 241 40 86 341 93 292 12 25 291 282 242 347 25 213 217 218 243 287 303 297 288 291 280 289 305 304 273 245 214 173 129 130 139 151 149 147 134 123 126 126 124 133 128 120 122 117 117 119
51 63 114 179 94 222 37 19 359 44 32 39 36 307 303 251 323 42 250 251 245 217 256 308 318 316 320 327 329 325 328 311 298 292 205 152 141 138 150 144 136 128 132 128 131 130 129 127 130 128 126 121 121 123
91 288 115 248 318 72 79 23 344 68 194 248 141 292 288 352 357 306 241 267 265 264 261 305 304 309 297 293 293 315 322 347 327 279 249 161 121 113 104 106 114 130 145 134 136 136 132 128 132 131 131 130 129 127
208 236 152 196 240 147 181 149 190 192 141 200 230 266 15 67 1 250 238 225 231 224 241 279 307 304 291 270 293 303 306 315 309 282 240 197 180 166 159 153 148 156 170 154 142 138 136 138 138 136 133 139 141 128
230 242 218 230 116 111 78 35 60 113 153 196 232 60 69 207 251 252 262 222 206 229 214 238 262 265 270 282 277 276 281 287 269 282 279 204 216 185 176 169 171 152 142 148 152 151 146 145 142 137 132 127 140 142
207 173 172 197 96 45 137 122 155 199 214 199 111 185 187 201 238 232 209 226 198 257 266 266 250 251 261 263 267 280 282 277 287 276 86 45 29 85 118 113 130 141 132 134 138 137 140 140 138 136 136 135 129 131
174 180 114 105 104 143 201 181 210 222 166 145 165 216 238 233 232 220 239 203 211 20 300 304 298 277 284 272 260 258 261 239 226 241 208 167 153 106 149 140 138 132 131 132 139 135 133 130 128 127 121 117 112 104
212 154 107 134 152 212 232 160 207 240 176 142 276 321 298 278 252 204 191 32 353 282 251 258 273 280 292 292 286 271 235 233 225 252 235 195 175 141 135 132 128 123 125 127 123 124 117 109 113 107 106 112 114 116
112 92 76 114 210 259 238 299 331 43 38 12 343 173 253 299 301 232 187 204 236 274 300 316 310 278 306 307 311 302 281 237 255 209 149 142 137 134 131 127 123 124 129 124 122 124 124 120 116 120 121 122 135 127
109 146 132 150 261 292 25 63 52 53 339 12 285 339 319 339 278 277 233 113 47 19 323 337 317 309 298 289 270 279 321 326 16 122 137 128 124 125 124 121 117 121 120 113 114 122 121 118 124 126 125 123 125 128
70 65 55 86 48 1 294 84 29 333 331 275 264 214 227 221 249 268 293 177 172 208 266 293 298 295 294 301 313 323 87 110 115 110 109 112 116 114 108 108 116 116 111 112 117 116 111 118 118 119 117 121 125 130